www.pogodaiklimat.ru

Погода и климат >> Архив погоды >> Кувейт >> Абдали


ПОГОДА в Абдали

  • Прогноз погоды в Абдали
  • Монитор погоды в Абдали

АРХИВ ПОГОДЫ в Абдали

Время (UTC), дата Ветер
(напр.,м/с)
 
Видим.   Явления Облачность Т
(С)
Тd
(С)
f
(%)
Тe
(С)
Тes
(С)
Комфортность P
(гПа)
Po
(гПа)
Тmin
(С)
Tmax
(С)
R
(мм)
R24
(мм)
S
(см)
12 13.07 С 7-16
{17}
16 км н/о +45.8 +8.3 11 +44 +44 опасность
перегрева
997.4 989.9 338
15 13.07 С 6-12
{16}
19 км н/о +43.4 +3.5 9 +40 +40 очень
жарко
997.5 990.0 70
18 13.07 С 5-10
{16}
17 км н/о +39.0 +5.5 13 +36 +36 очень
жарко
999.2 991.6
21 13.07 СЗ 2-4
{10}
19 км н/о +32.8 +4.2 17 +30 +30 жарко 999.4 991.6 +31.4 +46.3
00 14.07 СЗ 2-4
{10}
20 км н/о +29.4 +3.2 19 +27 +27 жарко 999.1 991.2
03 14.07 СЗ 4-6
{7}
20 км н/о +29.0 +2.7 19 +27 +27 жарко 1000.3 992.4 7
06 14.07 С 5-9
{11}
19 км н/о +38.4 +8.7 17 +37 +37 очень
жарко
1000.8 993.1 297
09 14.07 С 5-11
{12}
20 км н/о +42.2 +10.0 15 +41 +41 опасность
перегрева
999.9 992.3 439
12 14.07 С 5-11
{15}
20 км н/о +43.5 +10.2 14 +42 +42 опасность
перегрева
998.6 991.1 348
15 14.07 СВ 5-11
{13}
19 км н/о +41.3 +7.6 13 +39 +39 очень
жарко
998.1 990.5 76
18 14.07 С 2-5
{13}
20 км н/о +37.3 +8.0 17 +35 +35 очень
жарко
999.7 992.0
21 14.07 С 3-5
{6}
20 км н/о +33.9 +8.9 22 +33 +33 жарко 999.2 991.4 +27.9 +43.6
00 15.07 СЗ 2-4
{6}
20 км н/о +29.7 +10.0 29 +30 +30 жарко 998.8 990.9
03 15.07 С 4-7
{7}
20 км н/о +30.3 +8.6 26 +30 +30 жарко 999.2 991.4 6
06 15.07 С 5-12
{12}
20 км н/о +39.3 +8.7 16 +37 +37 очень
жарко
999.8 992.2 287
09 15.07 С 7-15
{15}
20 км н/о +42.8 +8.9 13 +41 +41 опасность
перегрева
998.8 991.3 437
12 15.07 С 6-12
{16}
20 км н/о +44.0 +7.8 12 +42 +42 опасность
перегрева
997.1 989.6 354
15 15.07 С 6-12
{13}
20 км н/о +42.0 +2.8 9 +39 +39 очень
жарко
996.6 989.1 76
18 15.07 С 4-8
{14}
20 км н/о +38.0 +4.6 13 +35 +35 очень
жарко
997.5 989.9
21 15.07 С 6-9
{9}
19 км н/о +34.6 +5.0 16 +32 +32 жарко 997.0 989.3 +28.5 +44.7
00 16.07 С 4-6
{9}
20 км н/о +32.5 +4.7 17 +30 +30 жарко 996.1 988.3
03 16.07 С 4-7
{8}
20 км н/о +30.9 +7.9 24 +30 +30 жарко 996.8 989.0 6
06 16.07 С 7-14
{14}
20 км н/о +40.4 +7.3 14 +38 +38 очень
жарко
997.2 989.6 295
09 16.07 С 8-20
{20}
19 км н/о +45.1 +9.6 12 +43 +43 опасность
перегрева
996.3 988.8 435
12 16.07 СВ 8-17
{20}
19 км н/о +45.2 +7.8 11 +43 +43 опасность
перегрева
996.1 988.6 349
15 16.07 С 9-17
{20}
19 км н/о +42.2 +3.5 9 +39 +39 очень
жарко
996.1 988.6 72
18 16.07 С 3-7
{20}
20 км н/о +37.3 +7.5 16 +35 +35 очень
жарко
998.0 990.3
21 16.07 С 5-9
{9}
20 км н/о +34.6 +7.8 19 +33 +33 жарко 997.6 989.9 +30.3 +46.2
00 17.07 С 5-7
{9}
20 км н/о +31.3 +7.5 23 +30 +30 жарко 997.3 989.5
03 17.07 С 4-8
{8}
20 км н/о +30.4 +7.6 24 +29 +29 жарко 998.3 990.5 9
06 17.07 С 6-13
{13}
20 км н/о +37.7 +9.1 18 +36 +36 очень
жарко
999.2 991.5 168
09 17.07 С 7-13
{17}
20 км н/о +41.1 +12.4 18 +40 +40 очень
жарко
999.1 991.5 386
12 17.07 С 8-16
{17}
11 км н/о +42.8 +11.2 16 +42 +42 опасность
перегрева
997.3 989.8 331
15 17.07 С 6-12
{17}
20 км н/о +40.7 +8.4 14 +39 +39 очень
жарко
998.0 990.4 65
18 17.07 С 3-5
{17}
20 км н/о +36.3 +10.7 21 +35 +35 очень
жарко
999.1 991.4
21 17.07 СЗ 3-5
{5}
20 км н/о +32.3 +8.4 23 +31 +31 жарко 998.9 991.1 +29.7 +43.3
00 18.07 СЗ 3-6
{6}
20 км н/о +30.4 +8.4 25 +30 +30 жарко 998.0 990.2
03 18.07 СЗ 4-7
{7}
20 км н/о +29.7 +8.5 27 +29 +29 жарко 998.4 990.5 8
06 18.07 С 6-11
{14}
20 км н/о +38.9 +10.0 18 +38 +38 очень
жарко
998.2 990.6 285
09 18.07 СВ 10-21
{21}
11 км н/о +44.7 +12.2 15 +44 +44 опасность
перегрева
997.4 989.9 417
12 18.07 СВ 7-15
{21}
11 км н/о +47.0 +7.9 10 +45 +45 опасность
перегрева
996.0 988.6 288
15 18.07 СВ 8-16
{19}
5000 м дым н/о +44.1 +5.9 10 +41 +41 опасность
перегрева
996.5 989.0 48
18 18.07 С 4-9
{19}
16 км н/о +39.7 +7.7 14 +37 +37 очень
жарко
997.5 989.9
21 18.07 С 8-16
{16}
18 км н/о +38.1 +8.3 16 +36 +36 очень
жарко
996.9 989.3 +28.9 +47.5
00 19.07 СВ 6-11
{16}
19 км н/о +35.9 +6.8 17 +34 +34 очень
жарко
996.9 989.2
03 19.07 С 5-11
{12}
19 км н/о +35.3 +6.2 17 +33 +33 жарко 998.1 990.4 10
06 19.07 С 9-17
{20}
17 км н/о +41.4 +9.8 15 +40 +40 очень
жарко
998.2 990.6 277
09 19.07 С 10-20
{23}
13 км н/о +43.7 +10.6 14 +42 +42 опасность
перегрева
998.2 990.7 410
12 19.07 С 9-17
{23}
15 км н/о +44.5 +10.1 13 +43 +43 опасность
перегрева
997.1 989.6 309
15 19.07 С 8-15
{20}
11 км н/о +42.2 +5.5 11 +39 +39 очень
жарко
997.3 989.8 47
18 19.07 С 3-6
{20}
13 км н/о +37.8 +6.3 15 +35 +35 очень
жарко
998.9 991.2
21 19.07 С 4-8
{8}
19 км н/о +35.6 +8.1 19 +34 +34 очень
жарко
998.8 991.1 +34.5 +45.6
00 20.07 С 4-9
{10}
20 км н/о +33.4 +9.7 23 +32 +32 жарко 998.8 991.0
03 20.07 С 6-10
{11}
20 км н/о +32.5 +10.6 26 +32 +32 жарко 999.9 992.1 9
06 20.07 С 7-12
{14}
20 км н/о +38.2 +10.8 19 +37 +37 очень
жарко
1000.2 992.5 276
09 20.07 С 6-11
{15}
20 км н/о +42.6 +13.3 18 +42 +42 опасность
перегрева
999.9 992.4 426

 

Местоположение метеостанции Абдали (Кувейт): широта 30.08 долгота 47.70 высота над уровнем моря 70 м.

В архиве по умолчанию представлена погода в Абдали за последнюю неделю. Архивные данные за месяц целиком и за предыдущие месяцы, начиная с января 2011 года, Вы можете получить, выбрав интересующий диапазон дат из раскрывающегося списка и нажав кнопку "Ввод!".


*Определитесь, кто Вы:
робот инопланетянин человек

Внимание! Время в таблицах - всемирное. Для получения местного времени необходимо прибавить поправку, которая равна 3 ч.

Смотрите также архив погоды в соседних городах и на ближайших метеорологических станциях:

Погода на Метеостанции Sabriyah (Кувейт) (39 км)
Погода на Метеостанции Mintribah (Кувейт) (43 км)
Погода в Басре аэропорт (Ирак) (50 км)
Погода на Метеостанции Jal Aliyah (Кувейт) (54 км)
Погода в Басре (Ирак) (55 км)
Погода в Абадане (Иран) (62 км)
Погода на Бубияне (Кувейт) (74 км)
Погода в Эль-Фао (Ирак) (78 км)
Погода в Эль-Джахра (Кувейт) (85 км)
Погода Остров Файлака (Кувейт) (88 км)

Пояснения к столбцам:

Ветер - указаны скорость ветра в м/с - средняя за 10 мин, порывы в срок и между сроками (в фигурных скобках) и направление, откуда дует ветер: С - северный, СВ - северо-восточный, В - восточный, ЮВ - юго-восточный, Ю - южный, ЮЗ - юго-западный, З - западный, СЗ - северо-западный.
Видимость - горизонтальная дальность видимости в метрах или километрах. При видимости от 1 до 10 км при отсутствии осадков обычно наблюдается дымка, при ухудшении видимости до 1 км и менее - туман. В сухую погоду видимость может ухудшаться дымом, пылью или мглою.
Явления - указаны атмосферные явления, наблюдавшиеся в срок или в последний час перед сроком; фигурными скобками обозначены явления, наблюдавшиеся между сроками (за 1-3 часа до срока); квадратными скобками обозначены град или гололедные отложения с указанием их диаметра в мм.
Облачность - указаны через наклонную черту общая и нижняя облачность в баллах и высота нижней границы облаков в метрах; квадратными скобками обозначены формы облаков: Ci - перистые, Cs - перисто-слоистые, Cc - перисто-кучевые, Ac - высококучевые, As - высокослоистые, Sc - слоисто-кучевые, Ns - слоисто-дождевые, Cu - кучевые, Cb - кучево-дождевые. Подробнее классификацию облаков см. в Атласе облаков (PDF).
T - Температура воздуха - температура, измеренная на высоте 2 м над землей.
Td - Температура точки росы - температура, при понижении до которой содержащийся в воздухе водяной пар достигнет насыщения.
f - Относительная влажность воздуха - влажноcть воздуха, измеренная на высоте 2 м над землей.
Te - Эффективная температура - температура, которую ощущает одетый по сезону человек в тени. Характеристика душности погоды. При расчете учитывается влияние влажности воздуха и скорости ветра на теплоощущения человека.
Tes - Эффективная температура на солнце - температура, которую ощущает человек, с поправкой на солнечный нагрев. Характеристика знойности погоды. Зависит от высоты солнца над горизонтом, облачности и скорости ветра. Ночью, в пасмурную погоду, а также при ветре 12 м/с и более поправка равна нулю.
P - Атмосферное давление - приведенное к уровню моря атмосферное давление.
Po - Атмосферное давление - измеренное на уровне метеостанции атмосферное давление.
Tmin - Минимальная температура - минимум температуры воздуха на высоте 2 м над землей.
Tmax - Максимальная температура - максимум температуры воздуха на высоте 2 м над землей.
R - Количество осадков - Количество выпавших осадков за период времени, мм. При наведении курсора мыши на число - период времени, за который выпало указанное количество осадков.
R24 - Количество осадков - Количество выпавших осадков за 24 часа, мм.
S - Снежный покров - Высота снежного покрова, см. При наведении курсора мыши на число - состояние снежного покрова и степень покрытия местности в баллах.